Location: Ammerl�gen
(47.2167°N, 9.6000°E)
Time: 05:37:40
(UTC+00:00)

Cosmos 2227 Rocket - Pass Details

Date: 21 April 2021
Orbit: 840 x 843 km, 71.0° (Epoch: 15 May)

Event Time Altitude Azimuth Distance (km) Brightness Sun altitude
Rises 20:49:16 0° 218° (SW) 3,389 5.2 -21.7°
Reaches altitude 10° 20:51:45 10° 222° (SW) 2,458 4.5 -22.0°
Maximum altitude 20:57:19 59° 301° (WNW) 976 2.7 -22.6°
Drops below altitude 10° 21:02:55 10° 21° (NNE) 2,471 5.0 -23.2°
Sets 21:05:25 0° 25° (NNE) 3,409 5.7 -23.4°
